Location: Observatoire
(46.1952°N, 5.3391°E)
Time: 21:00:51
(UTC+01:00)

Tiros 1 despin weight - Pass Details

Date: 25 February 2026
Orbit: 556 x 593 km, 48.2° (Epoch: 3 March)

Event Time Altitude Azimuth Distance (km) Brightness Sun altitude
Rises 15:03:11 0° 268° (W) 2,751 ? 27.5°
Reaches altitude 10° 15:05:28 10° 271° (W) 1,850 ? 27.3°
Maximum altitude 15:09:40 67° 355° (N) 606 ? 26.8°
Drops below altitude 10° 15:13:51 10° 79° (ENE) 1,839 ? 26.4°
Sets 15:16:07 0° 82° (E) 2,733 ? 26.1°
